THY1PZ LTFM-LCEN

Flight info

Callsign THY1PZ
Flight time 1h 10m
Altitude 37000
Route RATVU1D/35L RATVU UT35 DOKUB UT76 KFK UB545 HISAR
Aircraft A320/M-SDE3FGHIRWY/LB1

Departure

Time 2026-05-06 20:44
Airport İstanbul Airport (LTFM)

Arrival

Time 2026-05-06 21:54
Airport Ercan International Airport (LCEN)
Time Latitude Longitude Altitude Speed Heading
2026-05-06 19:28 41.26352 28.73879 334 ft 0 kts 198°
2026-05-06 20:28 41.26368 28.73885 330 ft 2 kts 200°
2026-05-06 20:28 41.26383 28.73892 330 ft 2 kts 198°
2026-05-06 20:28 41.26399 28.73899 330 ft 2 kts 198°
2026-05-06 20:29 41.26414 28.73906 330 ft 2 kts 198°
2026-05-06 20:29 41.26430 28.73913 330 ft 2 kts 198°
2026-05-06 20:29 41.26446 28.73920 330 ft 2 kts 176°
2026-05-06 20:29 41.26462 28.73916 330 ft 2 kts 161°
2026-05-06 20:30 41.26471 28.73911 332 ft 0 kts 161°
2026-05-06 20:32 41.26453 28.73920 330 ft 6 kts 161°
2026-05-06 20:32 41.26417 28.73957 333 ft 8 kts 117°
2026-05-06 20:33 41.26438 28.74023 333 ft 10 kts 24°
2026-05-06 20:33 41.26514 28.74025 334 ft 12 kts 359°
2026-05-06 20:33 41.26612 28.74023 333 ft 16 kts 359°
2026-05-06 20:33 41.26731 28.74021 331 ft 19 kts 360°
2026-05-06 20:34 41.26812 28.74019 333 ft 9 kts 358°
2026-05-06 20:34 41.26884 28.74016 332 ft 12 kts 359°
2026-05-06 20:34 41.26909 28.74016 333 ft 0 kts 359°
2026-05-06 20:35 41.26932 28.74015 331 ft 9 kts 359°
2026-05-06 20:35 41.27007 28.74015 333 ft 12 kts 359°
2026-05-06 20:35 41.27053 28.73943 334 ft 12 kts 264°
2026-05-06 20:36 41.27051 28.73818 334 ft 15 kts 268°
2026-05-06 20:36 41.27048 28.73670 331 ft 18 kts 270°
2026-05-06 20:36 41.27047 28.73493 331 ft 21 kts 269°
2026-05-06 20:36 41.27045 28.73351 332 ft 16 kts 269°
2026-05-06 20:37 41.27043 28.73194 334 ft 18 kts 269°
2026-05-06 20:37 41.27041 28.73068 334 ft 0 kts 269°
2026-05-06 20:39 41.27041 28.73067 334 ft 1 kts 269°
2026-05-06 20:39 41.27022 28.72999 331 ft 11 kts 217°
2026-05-06 20:40 41.26939 28.72988 330 ft 13 kts 179°
2026-05-06 20:40 41.26834 28.72989 331 ft 17 kts 179°
2026-05-06 20:40 41.26730 28.72982 332 ft 13 kts 212°
2026-05-06 20:40 41.26716 28.72942 334 ft 0 kts 266°
2026-05-06 20:41 41.26716 28.72907 334 ft 7 kts 271°
2026-05-06 20:42 41.26715 28.72794 334 ft 15 kts 269°
2026-05-06 20:42 41.26713 28.72644 332 ft 18 kts 269°
2026-05-06 20:42 41.26714 28.72531 332 ft 8 kts 289°
2026-05-06 20:42 41.26761 28.72513 332 ft 0 kts
2026-05-06 20:43 41.26771 28.72513 333 ft 4 kts
2026-05-06 20:43 41.26966 28.72511 333 ft 62 kts 359°
2026-05-06 20:43 41.27607 28.72493 331 ft 120 kts 359°
2026-05-06 20:43 41.28557 28.72478 531 ft 145 kts
2026-05-06 20:44 41.29574 28.72486 1116 ft 149 kts
2026-05-06 20:44 41.30628 28.72498 1721 ft 155 kts 359°
2026-05-06 20:44 41.31738 28.72505 2270 ft 164 kts 359°
2026-05-06 20:44 41.32918 28.72499 2815 ft 175 kts 358°
2026-05-06 20:45 41.34164 28.72484 3364 ft 183 kts 357°
2026-05-06 20:45 41.35468 28.72473 3895 ft 193 kts 358°
2026-05-06 20:45 41.36857 28.72337 4351 ft 206 kts 339°
2026-05-06 20:45 41.37965 28.71129 4882 ft 217 kts 298°
2026-05-06 20:46 41.38283 28.69105 5434 ft 234 kts 274°
2026-05-06 20:46 41.38289 28.66848 6027 ft 253 kts 272°
2026-05-06 20:46 41.38241 28.64474 6758 ft 264 kts 271°
2026-05-06 20:46 41.38180 28.62005 7615 ft 270 kts 271°
2026-05-06 20:47 41.38069 28.59484 8484 ft 277 kts 262°
2026-05-06 20:47 41.37276 28.57110 9351 ft 290 kts 234°
2026-05-06 20:47 41.35661 28.55468 10170 ft 302 kts 204°
2026-05-06 20:47 41.33548 28.54979 10698 ft 318 kts 181°
2026-05-06 20:48 41.31273 28.54978 11134 ft 336 kts 179°
2026-05-06 20:48 41.28878 28.55081 11528 ft 352 kts 174°
2026-05-06 20:48 41.26490 28.55746 12139 ft 359 kts 161°
2026-05-06 20:48 41.24193 28.57078 12891 ft 362 kts 149°
2026-05-06 20:49 41.22113 28.58981 13657 ft 364 kts 137°
2026-05-06 20:49 41.20258 28.61292 14327 ft 368 kts 134°
2026-05-06 20:49 41.18401 28.63658 14978 ft 372 kts 134°
2026-05-06 20:49 41.16527 28.66048 15617 ft 376 kts 134°
2026-05-06 20:50 41.14635 28.68465 16238 ft 380 kts 134°
2026-05-06 20:50 41.12779 28.70983 16891 ft 382 kts 127°
2026-05-06 20:50 41.11232 28.73859 17533 ft 384 kts 120°
2026-05-06 20:50 41.09795 28.76810 18143 ft 389 kts 120°
2026-05-06 20:51 41.08317 28.79831 18739 ft 393 kts 120°
2026-05-06 20:51 41.06821 28.82877 19323 ft 396 kts 120°
2026-05-06 20:51 41.05231 28.85886 19917 ft 401 kts 128°
2026-05-06 20:51 41.03201 28.88454 20517 ft 407 kts 142°
2026-05-06 20:52 41.00749 28.90371 21094 ft 413 kts 156°
2026-05-06 20:52 40.98003 28.91509 21653 ft 417 kts 169°
2026-05-06 20:52 40.95103 28.91799 22198 ft 420 kts 184°
2026-05-06 20:52 40.92186 28.91468 22730 ft 423 kts 186°
2026-05-06 20:53 40.89281 28.91103 23256 ft 427 kts 186°
2026-05-06 20:53 40.86300 28.90964 23763 ft 432 kts 178°
2026-05-06 20:53 40.83286 28.91209 24174 ft 436 kts 177°
2026-05-06 20:53 40.80242 28.91465 24586 ft 440 kts 177°
2026-05-06 20:54 40.77175 28.91721 24987 ft 444 kts 177°
2026-05-06 20:54 40.74079 28.91976 25384 ft 448 kts 178°
2026-05-06 20:54 40.70955 28.92226 25780 ft 451 kts 178°
2026-05-06 20:54 40.67806 28.92474 26174 ft 455 kts 178°
2026-05-06 20:55 40.64682 28.92720 26552 ft 458 kts 178°
2026-05-06 20:55 40.61485 28.92974 26931 ft 462 kts 178°
2026-05-06 20:55 40.58281 28.93414 27321 ft 466 kts 171°
2026-05-06 20:55 40.55127 28.94487 27690 ft 470 kts 161°
2026-05-06 20:56 40.52122 28.96209 28050 ft 474 kts 151°
2026-05-06 20:56 40.49310 28.98492 28421 ft 476 kts 146°
2026-05-06 20:56 40.46524 29.00885 28777 ft 480 kts 146°
2026-05-06 20:56 40.43757 29.03248 29145 ft 483 kts 146°
2026-05-06 20:57 40.40926 29.05656 29501 ft 487 kts 146°
2026-05-06 20:57 40.38074 29.08078 29864 ft 490 kts 146°
2026-05-06 20:57 40.35205 29.10512 30217 ft 493 kts 146°
2026-05-06 20:57 40.32314 29.12964 30526 ft 496 kts 146°
2026-05-06 20:58 40.29414 29.15419 30834 ft 498 kts 146°
2026-05-06 20:58 40.26493 29.17891 31135 ft 501 kts 146°
2026-05-06 20:58 40.23600 29.20339 31420 ft 503 kts 146°
2026-05-06 20:58 40.20653 29.22824 31707 ft 506 kts 148°
2026-05-06 20:59 40.17548 29.24983 32063 ft 506 kts 156°
2026-05-06 20:59 40.14263 29.26633 32485 ft 505 kts 161°
2026-05-06 20:59 40.10959 29.28198 32883 ft 505 kts 161°
2026-05-06 20:59 40.07655 29.29771 33305 ft 505 kts 160°
2026-05-06 21:00 40.04357 29.31344 33696 ft 505 kts 160°
2026-05-06 21:00 40.01053 29.32917 34073 ft 505 kts 161°
2026-05-06 21:00 39.97749 29.34483 34420 ft 505 kts 161°
2026-05-06 21:00 39.94496 29.36020 34800 ft 504 kts 161°
2026-05-06 21:01 39.91206 29.37575 35063 ft 502 kts 161°
2026-05-06 21:01 39.84717 29.40892 35135 ft 500 kts 158°
2026-05-06 21:01 39.81603 29.42898 35133 ft 500 kts 146°
2026-05-06 21:02 39.78866 29.45680 35135 ft 499 kts 137°
2026-05-06 21:02 39.73620 29.51579 35143 ft 499 kts 137°
2026-05-06 21:03 39.68417 29.57456 35148 ft 498 kts 137°
2026-05-06 21:03 39.63175 29.63349 35151 ft 498 kts 137°
2026-05-06 21:04 39.57929 29.69229 35156 ft 498 kts 137°
2026-05-06 21:04 39.52682 29.75090 35162 ft 498 kts 138°
2026-05-06 21:05 39.47429 29.80948 35161 ft 498 kts 138°
2026-05-06 21:05 39.42208 29.86761 35169 ft 498 kts 138°
2026-05-06 21:06 39.36956 29.92593 35164 ft 498 kts 138°
2026-05-06 21:06 39.31701 29.98420 35169 ft 498 kts 138°
2026-05-06 21:07 39.26442 30.04238 35169 ft 498 kts 138°
2026-05-06 21:07 39.21224 30.10012 35163 ft 497 kts 138°
2026-05-06 21:08 39.15969 30.15819 35163 ft 497 kts 138°
2026-05-06 21:08 39.10710 30.21605 35155 ft 498 kts 139°
2026-05-06 21:09 39.05444 30.27377 35164 ft 497 kts 139°
2026-05-06 21:09 39.00214 30.33104 35164 ft 497 kts 139°
2026-05-06 21:10 38.94941 30.38865 35156 ft 497 kts 139°
2026-05-06 21:10 38.89666 30.44615 35163 ft 497 kts 139°
2026-05-06 21:11 38.84389 30.50357 35154 ft 498 kts 139°
2026-05-06 21:11 38.79280 30.56334 35151 ft 496 kts 129°
2026-05-06 21:12 38.74790 30.62973 35161 ft 497 kts 129°
2026-05-06 21:12 38.70247 30.69648 35160 ft 497 kts 129°
2026-05-06 21:13 38.65703 30.76303 35152 ft 496 kts 130°
2026-05-06 21:13 38.61161 30.82948 35152 ft 496 kts 130°
2026-05-06 21:14 38.56652 30.89533 35153 ft 496 kts 130°
2026-05-06 21:14 38.52103 30.96167 35155 ft 495 kts 130°
2026-05-06 21:15 38.47564 31.02778 35149 ft 495 kts 130°
2026-05-06 21:15 38.42996 31.09364 35143 ft 495 kts 130°
2026-05-06 21:16 38.38437 31.15865 35146 ft 496 kts 131°
2026-05-06 21:16 38.33843 31.22414 35144 ft 495 kts 131°
2026-05-06 21:17 38.29257 31.28964 35145 ft 496 kts 131°
2026-05-06 21:17 38.24669 31.35502 35144 ft 496 kts 131°
2026-05-06 21:18 38.20068 31.42042 35150 ft 495 kts 131°
2026-05-06 21:18 38.15503 31.48516 35153 ft 495 kts 131°
2026-05-06 21:19 38.10919 31.55026 35158 ft 494 kts 131°
2026-05-06 21:19 38.06360 31.61556 35160 ft 494 kts 131°
2026-05-06 21:20 38.01417 31.67550 35166 ft 492 kts 150°
2026-05-06 21:20 37.95496 31.71790 35165 ft 492 kts 152°
2026-05-06 21:21 37.89504 31.75996 35170 ft 492 kts 153°
2026-05-06 21:21 37.83444 31.80234 35171 ft 503 kts 153°
2026-05-06 21:22 37.77315 31.84537 35166 ft 504 kts 152°
2026-05-06 21:22 37.71233 31.88825 35166 ft 504 kts 152°
2026-05-06 21:23 37.65111 31.93123 35175 ft 504 kts 153°
2026-05-06 21:23 37.58982 31.97404 35171 ft 503 kts 153°
2026-05-06 21:24 37.52857 32.01674 35172 ft 503 kts 153°
2026-05-06 21:24 37.46772 32.05911 35170 ft 503 kts 153°
2026-05-06 21:25 37.40656 32.10172 35174 ft 503 kts 153°
2026-05-06 21:25 37.34532 32.14422 35170 ft 502 kts 153°
2026-05-06 21:26 37.28409 32.18668 35165 ft 503 kts 153°
2026-05-06 21:26 37.22328 32.22879 35170 ft 503 kts 153°
2026-05-06 21:27 37.16203 32.27107 35165 ft 503 kts 153°
2026-05-06 21:27 37.10071 32.31324 35162 ft 503 kts 153°
2026-05-06 21:28 37.03939 32.35529 35159 ft 502 kts 153°
2026-05-06 21:28 36.97844 32.39704 35155 ft 503 kts 153°
2026-05-06 21:29 36.91715 32.43907 35154 ft 502 kts 153°
2026-05-06 21:29 36.85586 32.48098 35151 ft 502 kts 154°
2026-05-06 21:30 36.79458 32.52276 35149 ft 502 kts 154°
2026-05-06 21:30 36.73372 32.56423 35148 ft 501 kts 154°
2026-05-06 21:31 36.67256 32.60589 35144 ft 501 kts 154°
2026-05-06 21:31 36.61141 32.64738 35141 ft 500 kts 154°
2026-05-06 21:32 36.55025 32.68878 35144 ft 500 kts 154°
2026-05-06 21:32 36.45910 32.75041 35137 ft 499 kts 154°
2026-05-06 21:33 36.39805 32.79152 35133 ft 498 kts 154°
2026-05-06 21:33 36.33714 32.83249 35132 ft 498 kts 154°
2026-05-06 21:34 36.28655 32.86654 35129 ft 498 kts 154°
2026-05-06 21:34 36.21584 32.91400 35126 ft 497 kts 154°
2026-05-06 21:35 36.15502 32.95481 35119 ft 497 kts 154°
2026-05-06 21:35 36.10447 32.98860 35116 ft 497 kts 155°
2026-05-06 21:36 36.04366 33.02912 35101 ft 496 kts 155°
2026-05-06 21:36 35.97304 33.07615 35115 ft 496 kts 155°
2026-05-06 21:37 35.91227 33.11655 35112 ft 496 kts 155°
2026-05-06 21:37 35.86174 33.15011 35109 ft 496 kts 155°
2026-05-06 21:38 35.80095 33.19036 35107 ft 496 kts 155°
2026-05-06 21:38 35.73051 33.23692 34721 ft 491 kts 155°
2026-05-06 21:39 35.70070 33.25669 34310 ft 483 kts 155°
2026-05-06 21:39 35.68108 33.26968 33809 ft 484 kts 155°
2026-05-06 21:39 35.65142 33.28928 33003 ft 484 kts 155°
2026-05-06 21:39 35.62175 33.30883 32223 ft 484 kts 155°
2026-05-06 21:40 35.59211 33.32832 31465 ft 483 kts 155°
2026-05-06 21:40 35.56250 33.34776 30726 ft 482 kts 155°
2026-05-06 21:40 35.53302 33.36711 29976 ft 480 kts 155°
2026-05-06 21:40 35.50365 33.38641 29142 ft 478 kts 155°
2026-05-06 21:41 35.47433 33.40564 28322 ft 476 kts 155°
2026-05-06 21:41 35.44527 33.42470 27536 ft 473 kts 155°
2026-05-06 21:41 35.41672 33.44336 26781 ft 470 kts 155°
2026-05-06 21:41 35.38842 33.46186 26044 ft 467 kts 155°
2026-05-06 21:42 35.35979 33.48061 25308 ft 464 kts 155°
2026-05-06 21:42 35.33141 33.49924 24606 ft 462 kts 155°
2026-05-06 21:42 35.30310 33.51780 23586 ft 465 kts 155°
2026-05-06 21:42 35.27440 33.53651 22228 ft 465 kts 155°
2026-05-06 21:43 35.24620 33.55487 20947 ft 454 kts 155°
2026-05-06 21:43 35.21953 33.57464 19833 ft 445 kts 144°
2026-05-06 21:43 35.19857 33.60107 18896 ft 435 kts 128°
2026-05-06 21:43 35.18127 33.63091 17922 ft 426 kts 126°
2026-05-06 21:44 35.16474 33.66019 17007 ft 413 kts 126°
2026-05-06 21:44 35.15922 33.66998 16701 ft 409 kts 126°
2026-05-06 21:44 35.15587 33.67593 16514 ft 406 kts 126°
2026-05-06 21:44 35.14010 33.70507 15607 ft 393 kts 125°
2026-05-06 21:45 35.12493 33.73221 14764 ft 382 kts 126°
2026-05-06 21:45 35.11011 33.75863 13929 ft 372 kts 126°
2026-05-06 21:45 35.09558 33.78424 13012 ft 362 kts 128°
2026-05-06 21:45 35.07798 33.80478 12121 ft 351 kts 149°
2026-05-06 21:46 35.05674 33.81864 11247 ft 343 kts 155°
2026-05-06 21:46 35.03514 33.83033 10389 ft 336 kts 163°
2026-05-06 21:46 35.01254 33.83442 9860 ft 321 kts 182°
2026-05-06 21:46 34.99130 33.83002 9464 ft 302 kts 200°
2026-05-06 21:47 34.97329 33.81861 9126 ft 284 kts 218°
2026-05-06 21:47 34.95940 33.80186 8818 ft 279 kts 235°
2026-05-06 21:47 34.95016 33.78139 8507 ft 274 kts 251°
2026-05-06 21:47 34.94600 33.75900 8205 ft 269 kts 267°
2026-05-06 21:48 34.94726 33.73681 7905 ft 265 kts 286°
2026-05-06 21:48 34.95514 33.71675 7511 ft 264 kts 309°
2026-05-06 21:48 34.96910 33.70245 7089 ft 265 kts 334°
2026-05-06 21:48 34.98638 33.69451 6633 ft 266 kts 341°
2026-05-06 21:49 35.00367 33.68744 6151 ft 258 kts 341°
2026-05-06 21:49 35.02050 33.68055 5682 ft 252 kts 341°
2026-05-06 21:49 35.03679 33.67385 5259 ft 244 kts 341°
2026-05-06 21:49 35.05267 33.66730 4775 ft 240 kts 341°
2026-05-06 21:50 35.06848 33.66076 4187 ft 239 kts 341°
2026-05-06 21:50 35.08402 33.65432 3624 ft 238 kts 341°
2026-05-06 21:50 35.09912 33.64652 3071 ft 232 kts 327°
2026-05-06 21:50 35.11048 33.63361 2547 ft 216 kts 305°
2026-05-06 21:51 35.11694 33.61807 2220 ft 196 kts 292°
2026-05-06 21:51 35.12173 33.60343 1974 ft 176 kts 292°
2026-05-06 21:51 35.12599 33.59048 1737 ft 153 kts 292°
2026-05-06 21:51 35.12970 33.57920 1550 ft 134 kts 292°
2026-05-06 21:52 35.13306 33.56895 1364 ft 132 kts 292°
2026-05-06 21:52 35.13649 33.55852 1169 ft 131 kts 291°
2026-05-06 21:52 35.13986 33.54823 991 ft 130 kts 292°
2026-05-06 21:52 35.14324 33.53805 838 ft 129 kts 291°
2026-05-06 21:53 35.14657 33.52784 658 ft 129 kts 291°
2026-05-06 21:53 35.14991 33.51777 485 ft 127 kts 290°
2026-05-06 21:53 35.15304 33.50813 394 ft 106 kts 293°
2026-05-06 21:53 35.15504 33.50200 392 ft 52 kts 292°
2026-05-06 21:54 35.15601 33.49909 393 ft 33 kts 291°
2026-05-06 21:54 35.15658 33.49732 393 ft 12 kts 291°
2026-05-06 21:54 35.15639 33.49640 394 ft 12 kts 194°
2026-05-06 21:54 35.15559 33.49697 393 ft 15 kts 142°
2026-05-06 21:55 35.15467 33.49780 393 ft 17 kts 170°
2026-05-06 21:55 35.15359 33.49729 393 ft 15 kts 204°
2026-05-06 21:55 35.15254 33.49701 393 ft 13 kts 155°
2026-05-06 21:55 35.15208 33.49806 393 ft 16 kts 112°
2026-05-06 21:56 35.15163 33.49943 393 ft 19 kts 112°
2026-05-06 21:56 35.15113 33.50091 393 ft 19 kts 111°
2026-05-06 21:56 35.15062 33.50245 393 ft 19 kts 112°
2026-05-06 21:56 35.15033 33.50303 393 ft 2 kts 172°
2026-05-06 21:57 35.15027 33.50295 393 ft 5 kts 225°
2026-05-06 21:57 35.14988 33.50272 393 ft 4 kts 200°
2026-05-06 21:57 35.14987 33.50271 393 ft 0 kts 200°
2026-05-06 22:12 35.14988 33.50271 393 ft 0 kts 200°